FW8060 Weather Reports


time (UTC)temp
C
wind
direction
speed
KPH
gust
KPH
rain 1hr
cm
rain 24hr
cm
rain mn
cm
humidity
%
barometer
mb
20260507093911 14 189 3.2 12.9 0.00 0.00 0.00 64 1016.1
20260507092909 15 223 4.8 11.3 0.00 0.00 0.00 65 1016.0
20260507092355 14 178 3.2 11.3 0.00 0.00 0.00 68 1015.9
20260507091952 15 160 3.2 12.9 0.00 0.00 0.00 64 1016.1
20260507085905 14 116 3.2 8.0 0.00 0.00 0.00 70 1015.9
20260507085831 11 125 0.0 3.2 0.00 0.00 0.00 82 1015.7
20260507084930 13 161 4.8 8.0 0.00 0.00 0.00 72 1015.6
20260507084131 13 131 3.2 9.7 0.00 0.00 0.00 76 1015.8
20260507083033 11 134 3.2 6.4 0.00 0.00 0.00 80 1015.7
20260507082029 11 121 1.6 6.4 0.00 0.00 0.00 81 1015.6
20260507080821 11 125 1.6 3.2 0.00 0.00 0.00 84 1015.7
20260507074907 11 125 0.0 4.8 0.00 0.00 0.00 86 1015.6
20260507074140 10 61 1.6 6.4 0.00 0.00 0.00 87 1015.4
20260507073926 11 61 0.0 4.8 0.00 0.00 0.00 87 1015.5
20260507071908 10 61 1.6 6.4 0.00 0.00 0.00 88 1015.4
20260507070859 10 61 1.6 3.2 0.00 0.00 0.00 89 1015.3
20260507065857 10 61 1.6 6.4 0.00 0.00 0.00 89 1015.2
20260507064855 10 61 1.6 6.4 0.00 0.00 0.00 88 1015.4
20260507063900 10 61 0.0 6.4 0.00 0.00 0.00 88 1015.4
20260507062907 9 61 1.6 4.8 0.00 0.00 0.00 89 1015.3
20260507061858 9 61 0.0 1.6 0.00 0.00 0.00 90 1015.3
20260507060857 9 61 0.0 1.6 0.00 0.00 0.00 90 1015.1
20260507055851 9 61 0.0 3.2 0.00 0.00 0.00 90 1015.0
20260507054855 9 61 0.0 3.2 0.00 0.00 0.00 90 1014.9
20260507053852 8 61 0.0 1.6 0.00 0.00 0.00 91 1014.8
20260507052851 8 61 0.0 3.2 0.00 0.00 0.00 92 1014.6
20260507051851 8 61 0.0 3.2 0.00 0.00 0.00 93 1014.5
20260507050848 8 61 0.0 1.6 0.00 0.00 0.00 94 1014.4
20260507045845 8 61 0.0 1.6 0.00 0.00 0.00 95 1014.3
20260507044849 8 61 0.0 3.2 0.00 0.00 0.00 95 1014.3
20260507043846 8 61 0.0 3.2 0.00 0.00 0.00 95 1014.3
20260507042846 8 61 0.0 3.2 0.00 0.00 0.00 95 1014.2
20260507041931 8 53 0.0 6.4 0.00 0.00 0.00 95 1014.1
20260507041852 8 61 1.6 4.8 0.00 0.00 0.00 95 1014.1
20260507035847 8 138 0.0 0.0 0.00 0.00 0.00 95 1013.9
20260507034844 8 138 0.0 0.0 0.00 0.00 0.00 95 1013.9
20260507033938 8 119 0.0 1.6 0.00 0.00 0.00 95 1013.8
20260507033852 8 138 0.0 1.6 0.00 0.00 0.00 95 1013.8
20260507031849 8 288 0.0 0.0 0.00 0.00 0.00 95 1013.7
20260507030843 8 288 0.0 0.0 0.00 0.00 0.00 95 1013.7
20260507025842 8 288 0.0 0.0 0.00 0.00 0.00 95 1013.6
20260507025646 8 288 0.0 3.2 0.00 0.00 0.00 95 1013.6
20260507023842 8 288 0.0 1.6 0.00 0.00 0.00 95 1013.5
20260507023831 8 288 0.0 0.0 0.00 0.00 0.00 95 1013.4
20260507022634 7 313 0.0 0.0 0.00 0.00 0.00 95 1013.4
20260507021848 7 288 0.0 3.2 0.00 0.00 0.00 95 1013.4
20260507021045 7 288 1.6 4.8 0.00 0.00 0.00 95 1013.4
20260507020343 7 313 0.0 0.0 0.00 0.00 0.00 94 1013.2
20260507015835 7 313 0.0 0.0 0.00 0.00 0.00 95 1013.3
20260507015027 7 313 0.0 0.0 0.00 0.00 0.00 95 1013.3
20260507013931 7 313 0.0 0.0 0.00 0.00 0.00 95 1013.3
20260507012946 7 313 0.0 0.0 0.00 0.00 0.00 95 1013.3
20260507011933 7 313 0.0 0.0 0.00 0.00 0.00 94 1013.2
20260507011325 7 313 0.0 0.0 0.00 0.00 0.00 95 1013.2
20260507011220 7 313 0.0 0.0 0.00 0.00 0.00 94 1013.3
20260507011031 7 313 0.0 0.0 0.00 0.00 0.00 94 1013.2
20260507004837 7 313 0.0 0.0 0.00 0.00 0.00 94 1013.2
20260507004728 7 313 0.0 0.0 0.00 0.00 0.00 94 1013.3
20260506235828 7 313 0.0 0.0 0.00 0.00 0.00 94 1013.3
20260506235745 7 313 0.0 0.0 0.00 0.00 0.00 94 1013.2
20260506233827 8 313 0.0 0.0 0.00 0.00 0.00 94 1013.2
20260506233754 8 313 0.0 0.0 0.00 0.00 0.00 94 1013.1
20260506231843 8 313 0.0 0.0 0.00 0.00 0.00 93 1013.0
20260506231043 8 313 0.0 0.0 0.00 0.00 0.00 93 1012.9
20260506230845 8 313 0.0 0.0 0.00 0.00 0.00 93 1013.0
20260506224817 8 313 0.0 0.0 0.00 0.00 0.00 93 1012.9
20260506223811 8 313 0.0 0.0 0.00 0.00 0.00 92 1012.9
20260506222828 8 313 0.0 0.0 0.00 0.00 0.00 92 1012.8
20260506221821 8 313 0.0 1.6 0.00 0.00 0.00 92 1012.7
20260506220817 8 313 0.0 1.6 0.00 0.00 0.00 91 1012.7
20260506215820 9 313 0.0 1.6 0.00 0.00 0.00 91 1012.8
20260506214815 9 313 0.0 3.2 0.00 0.00 0.00 91 1012.7
20260506213809 9 313 0.0 4.8 0.00 0.00 0.00 91 1012.8
20260506212811 9 313 0.0 0.0 0.00 0.00 0.00 91 1012.6
20260506211816 9 313 0.0 0.0 0.00 0.00 0.00 91 1012.7
20260506210825 9 313 0.0 3.2 0.00 0.00 0.00 90 1012.6
20260506205848 10 313 1.6 4.8 0.00 0.00 0.00 89 1012.4
20260506205822 10 313 0.0 4.8 0.00 0.00 0.00 90 1012.5
20260506205741 10 313 1.6 4.8 0.00 0.00 0.00 88 1012.4
20260506202814 10 279 3.2 8.0 0.00 0.00 0.00 88 1012.4
20260506201812 10 277 1.6 6.4 0.00 0.00 0.00 87 1012.3
20260506200807 10 288 3.2 14.5 0.00 0.00 0.00 86 1012.1
20260506195820 11 323 8.0 20.9 0.00 0.00 0.00 85 1012.0
20260506194807 11 324 6.4 14.5 0.00 0.00 0.00 85 1012.0
20260506193808 11 338 8.0 14.5 0.00 0.00 0.00 84 1011.9
20260506192808 11 323 9.7 17.7 0.00 0.00 0.00 83 1011.8
20260506191817 11 323 8.0 17.7 0.00 0.00 0.00 82 1011.7
20260506190817 11 0 9.7 17.7 0.00 0.00 0.00 82 1011.6
20260506185831 11 355 8.0 17.7 0.00 0.00 0.00 81 1011.6
20260506184815 11 309 9.7 19.3 0.00 0.00 0.00 80 1011.6
20260506183812 12 355 8.0 20.9 0.00 0.00 0.00 79 1011.3
20260506182829 12 317 8.0 16.1 0.00 0.00 0.00 79 1011.4
20260506181811 12 346 9.7 19.3 0.00 0.00 0.00 79 1011.2
20260506180808 12 331 9.7 20.9 0.00 0.00 0.00 77 1011.1
20260506175828 12 338 11.3 22.5 0.00 0.00 0.00 77 1011.0
20260506175331 12 325 8.0 16.1 0.00 0.00 0.00 76 1010.8
20260506173849 12 302 8.0 17.7 0.00 0.00 0.00 75 1010.6
20260506172821 12 335 9.7 24.1 0.00 0.00 0.00 75 1010.6
20260506171808 12 351 9.7 20.9 0.00 0.00 0.00 74 1010.5
20260506171508 13 14 11.3 20.9 0.00 0.00 0.00 75 1010.3
20260506171111 13 325 12.9 24.1 0.00 0.00 0.00 72 1010.3
20260506170831 13 313 9.7 20.9 0.00 0.00 0.00 75 1010.4
20260506163809 13 337 11.3 25.7 0.00 0.00 0.00 70 1010.1
20260506163253 13 347 11.3 27.4 0.00 0.00 0.00 70 1010.0
20260506161852 14 28 12.9 27.4 0.00 0.00 0.00 69 1010.0
20260506160814 13 346 8.0 20.9 0.00 0.00 0.00 69 1010.0
20260506155821 13 355 11.3 25.7 0.00 0.00 0.00 71 1010.1
20260506154815 14 302 14.5 27.4 0.00 0.00 0.00 71 1010.0
20260506153815 14 336 12.9 24.1 0.00 0.00 0.00 72 1010.1
20260506152810 13 350 11.3 22.5 0.00 0.00 0.00 70 1010.0
20260506151804 14 22 12.9 27.4 0.00 0.00 0.00 71 1010.1
20260506150806 14 339 14.5 25.7 0.00 0.00 0.00 70 1010.0
20260506145805 14 330 12.9 27.4 0.00 0.00 0.00 69 1010.1
20260506144810 14 330 16.1 29.0 0.00 0.00 0.00 70 1010.1
20260506143806 14 317 12.9 24.1 0.00 0.00 0.00 70 1010.0
20260506142806 14 329 12.9 24.1 0.00 0.00 0.00 69 1010.1
20260506141804 14 332 11.3 20.9 0.00 0.00 0.00 69 1010.0
20260506141027 15 34 11.3 25.7 0.00 0.00 0.00 67 1009.9
20260506140802 15 307 9.7 25.7 0.00 0.00 0.00 67 1009.9
20260506134806 14 306 11.3 24.1 0.00 0.00 0.00 67 1009.9
20260506133757 15 322 9.7 24.1 0.00 0.00 0.00 67 1009.9
20260506132759 14 355 11.3 24.1 0.00 0.00 0.00 69 1010.0
20260506131800 13 38 8.0 19.3 0.00 0.00 0.00 71 1009.9
20260506131215 13 346 9.7 20.9 0.00 0.00 0.00 74 1009.7
20260506130822 13 9 9.7 22.5 0.00 0.00 0.00 72 1009.9
20260506125816 13 5 11.3 24.1 0.00 0.00 0.00 73 1009.8
20260506123755 13 346 9.7 20.9 0.00 0.00 0.00 75 1009.6
20260506123431 13 350 11.3 24.1 0.00 0.00 0.00 76 1009.7
20260506122806 13 294 11.3 20.9 0.00 0.00 0.00 75 1009.7
20260506120802 13 355 9.7 17.7 0.00 0.00 0.00 76 1009.8
20260506115759 13 327 8.0 17.7 0.00 0.00 0.00 76 1009.7
20260506114755 13 319 11.3 24.1 0.00 0.00 0.00 76 1009.8
20260506113757 13 327 9.7 20.9 0.00 0.00 0.00 77 1009.8
20260506113128 13 339 11.3 22.5 0.00 0.00 0.00 76 1009.8
20260506112828 13 328 9.7 22.5 0.00 0.00 0.00 77 1009.7
20260506110800 13 326 9.7 25.7 0.00 0.00 0.00 77 1009.8
20260506105759 12 5 12.9 24.1 0.00 0.00 0.00 78 1009.7
20260506104754 12 318 11.3 19.3 0.00 0.00 0.00 79 1009.8
20260506103757 12 289 9.7 29.0 0.00 0.00 0.00 81 1009.7
20260506102752 11 335 11.3 25.7 0.00 0.00 0.00 82 1009.7
20260506101750 11 318 9.7 22.5 0.00 0.00 0.00 84 1009.8
20260506100751 11 332 8.0 22.5 0.00 0.00 0.00 86 1009.9
20260506095749 10 338 8.0 24.1 0.00 0.00 0.00 88 1009.9
20260506095554 10 338 8.0 24.1 0.00 0.00 0.00 88 1010.0